Philip, SD

7:10 AM MDT on August 18, 2017 (GMT -0600)
Philip

Weather History for KPHP - February, 2012

Change the Weather History Date:

Saturday, February 25, 2012

  Actual Average Record
Temperature  
Mean Temperature 32 °F 28 °F  
Max Temperature 53 °F 41 °F 73 °F (1958)
Min Temperature 11 °F 15 °F -18 °F (2011)
Degree Days  
Heating Degree Days 33 37  
Month to date heating degree days 924 992  
Since 1 July heating degree days 4539 5257  
Cooling Degree Days 0 0  
Month to date cooling degree days 0 0  
Year to date cooling degree days 0 0  
Moisture  
Dew Point 19 °F    
Average Humidity 56    
Maximum Humidity 92    
Minimum Humidity 20    
Precipitation  
Precipitation 0.03 in 0.02 in 0.13 in (2009)
Month to date precipitation 0.27 0.38  
Year to date precipitation 0.48 0.68  
Sea Level Pressure  
Sea Level Pressure 29.72 in    
Wind  
Wind Speed 18 mph (SSE)    
Max Wind Speed 38 mph    
Max Gust Speed 47 mph    
Visibility 9 miles    
Events Fog , Rain , Snow    
T = Trace of Precipitation, MM = Missing Value Source: NWS Daily Summary

Daily Weather History Graph

Daily Weather History Graph

Search for Another Location

Airport or City:

Trip Planner

Search our weather history database for the weather conditions in past years. The results will help you decide how hot, cold, wet, or windy it might be!

Date:

Astronomy

Feb. 25, 2012 Rise Set
Actual Time 6:30 AM MST 5:28 PM MST
Civil Twilight 6:01 AM MST 5:58 PM MST
Nautical Twilight 5:28 AM MST 6:31 PM MST
Astronomical Twilight 4:54 AM MST 7:05 PM MST
Moon 7:45 AM MST (2/25) 9:43 PM MST (2/25)
Length of Visible Light 11h 56m
Length of Day
10h 58m
Waxing Crescent, 14% of the Moon is Illuminated
Feb 25
Waxing Crescent
Feb 29
First Quarter
Mar 8
Full
Mar 14
Last Quarter
Mar 22
New

Hourly Weather History & Observations

Time (MST) Temp. Windchill Dew Point Humidity Pressure Visibility Wind Dir Wind Speed Gust Speed Precip Events Conditions
12:55 AM 14.0 °F 2.0 °F 10.9 °F 88% 30.24 in 10.0 mi ENE 9.2 mph - N/A   Clear
1:55 AM 12.9 °F 5.2 °F 10.9 °F 92% 30.23 in 10.0 mi East 4.6 mph - N/A   Clear
2:55 AM 12.0 °F 1.5 °F 9.0 °F 88% 30.21 in 10.0 mi East 6.9 mph - N/A   Clear
3:55 AM 12.0 °F 0.5 °F 9.0 °F 88% 30.17 in 10.0 mi East 8.1 mph - N/A   Clear
4:55 AM 12.0 °F -0.4 °F 9.0 °F 88% 30.14 in 10.0 mi East 9.2 mph - N/A   Clear
5:55 AM 14.0 °F 2.0 °F 10.9 °F 88% 30.10 in 10.0 mi East 9.2 mph - N/A   Clear
6:55 AM 16.0 °F 3.6 °F 12.9 °F 88% 30.06 in 10.0 mi East 10.4 mph - N/A   Clear
7:55 AM 19.9 °F 7.3 °F 17.1 °F 89% 30.01 in 10.0 mi ESE 12.7 mph - N/A   Clear
8:55 AM 27.0 °F 12.8 °F 21.0 °F 78% 29.92 in 10.0 mi ESE 21.9 mph 28.8 mph N/A   Clear
9:55 AM 36.0 °F 24.4 °F 23.0 °F 59% 29.86 in 10.0 mi SE 23.0 mph 29.9 mph N/A   Clear
10:55 AM 41.0 °F 30.2 °F 21.9 °F 47% 29.78 in 10.0 mi SSE 27.6 mph 33.4 mph N/A   Clear
11:55 AM 46.9 °F - 21.9 °F 37% 29.70 in 10.0 mi SSE 26.5 mph 40.3 mph N/A   Clear
12:55 PM 48.9 °F - 21.0 °F 33% 29.64 in 10.0 mi SSE 26.5 mph 35.7 mph N/A   Clear
1:55 PM 48.0 °F - 21.0 °F 34% 29.59 in 10.0 mi South 25.3 mph 35.7 mph N/A   Clear
2:55 PM 48.9 °F - 21.0 °F 33% 29.55 in 10.0 mi South 23.0 mph 34.5 mph N/A   Clear
3:55 PM 48.9 °F - 21.0 °F 33% 29.52 in 10.0 mi South 24.2 mph 33.4 mph N/A   Overcast
4:55 PM 48.0 °F - 21.9 °F 36% 29.48 in 10.0 mi South 20.7 mph 28.8 mph N/A   Clear
5:55 PM 46.0 °F 39.6 °F 21.9 °F 39% 29.48 in 10.0 mi SSE 15.0 mph - N/A   Partly Cloudy
6:55 PM 51.1 °F - 21.9 °F 32% 29.47 in 10.0 mi SSW 18.4 mph 26.5 mph N/A   Scattered Clouds
7:55 PM 50.0 °F - 10.0 °F 20% 29.50 in 10.0 mi SW 26.5 mph 38.0 mph N/A   Mostly Cloudy
8:55 PM 45.0 °F 37.4 °F 10.0 °F 24% 29.46 in 10.0 mi SW 18.4 mph 28.8 mph N/A   Clear
9:55 PM 42.1 °F 33.3 °F 10.0 °F 27% 29.41 in 10.0 mi SW 19.6 mph 28.8 mph N/A   Clear
10:55 PM 37.0 °F 24.5 °F 30.9 °F 79% 29.42 in 10.0 mi West 29.9 mph 47.2 mph 0.00 in Rain Light Rain
11:03 PM 33.8 °F 21.0 °F 30.2 °F 87% 29.39 in 7.0 mi WSW 25.3 mph 39.1 mph 0.00 in Snow Light Snow
11:24 PM 33.8 °F 19.9 °F 32.0 °F 93% 29.38 in 1.8 mi WSW 31.1 mph 44.9 mph 0.00 in Snow Light Snow
11:33 PM 33.8 °F 19.2 °F 33.8 °F 100% 29.39 in 1.2 mi West 34.5 mph 42.6 mph 0.01 in Snow Light Snow
11:55 PM 32.0 °F 18.4 °F 32.0 °F 100% 29.46 in 0.5 mi West 26.5 mph 42.6 mph 0.01 in Fog , Snow Snow